FW8733 Weather Reports


Display with metric or nautical units.
time (UTC)temp
F
wind
direction
speed
MPH
gust
MPH
rain 1hr
in
rain 24hr
in
rain mn
in
humidity
%
barometer
mb
20260504231323 81 251 6.0 9.0 0.00 0.00 0.00 63 1012.2
20260504230819 82 105 5.0 7.0 0.00 0.00 0.00 63 1011.9
20260504230318 81 219 4.0 5.0 0.00 0.00 0.00 63 1012.3
20260504225816 82 220 2.0 3.0 0.00 0.00 0.00 62 1012.3
20260504225312 82 186 3.0 6.0 0.00 0.00 0.00 63 1012.4
20260504224809 83 170 6.0 8.0 0.00 0.00 0.00 62 1012.4
20260504224306 82 219 5.0 7.0 0.00 0.00 0.00 62 1012.4
20260504223803 82 284 5.0 8.0 0.00 0.00 0.00 62 1012.4
20260504223258 82 210 2.0 2.0 0.00 0.00 0.00 63 1013.0
20260504222755 82 186 9.0 14.0 0.00 0.00 0.00 62 1012.6
20260504222252 81 215 8.0 9.0 0.00 0.00 0.00 62 1012.9
20260504221750 82 172 7.0 8.0 0.00 0.00 0.00 62 1012.7
20260504221247 82 210 6.0 8.0 0.00 0.00 0.00 62 1012.8
20260504220743 82 199 5.0 9.0 0.00 0.00 0.00 61 1013.0
20260504220241 83 199 4.0 6.0 0.00 0.00 0.00 61 1012.8
20260504215738 84 180 4.0 9.0 0.00 0.00 0.00 60 1012.9
20260504215234 83 186 3.0 5.0 0.00 0.00 0.00 60 1013.0
20260504214730 84 193 1.0 2.0 0.00 0.00 0.00 61 1012.8
20260504214227 83 129 5.0 7.0 0.00 0.00 0.00 60 1013.0
20260504213724 84 214 1.0 1.0 0.00 0.00 0.00 62 1013.0
20260504213220 84 153 4.0 8.0 0.00 0.00 0.00 61 1012.9
20260504212717 83 181 6.0 11.0 0.00 0.00 0.00 61 1012.9
20260504212214 83 133 4.0 6.0 0.00 0.00 0.00 61 1013.0
20260504211711 82 121 7.0 9.0 0.00 0.00 0.00 62 1013.3
20260504211207 82 197 5.0 8.0 0.00 0.00 0.00 62 1013.3
20260504210705 83 152 8.0 10.0 0.00 0.00 0.00 62 1013.2
20260504210201 83 179 10.0 11.0 0.00 0.00 0.00 60 1013.4
20260504205659 83 184 2.0 2.0 0.00 0.00 0.00 62 1013.5
20260504205155 83 185 1.0 2.0 0.00 0.00 0.00 63 1013.9
20260504204654 83 214 5.0 7.0 0.00 0.00 0.00 60 1013.8
20260504204153 83 229 2.0 3.0 0.00 0.00 0.00 61 1013.8
20260504203651 83 210 2.0 2.0 0.00 0.00 0.00 61 1013.8
20260504203148 83 206 1.0 2.0 0.00 0.00 0.00 61 1013.9
20260504202643 83 165 7.0 10.0 0.00 0.00 0.00 61 1014.4
20260504202140 83 144 5.0 6.0 0.00 0.00 0.00 62 1014.3
20260504201637 83 224 2.0 3.0 0.00 0.00 0.00 61 1014.2
20260504201135 83 164 5.0 6.0 0.00 0.00 0.00 61 1014.5
20260504200632 82 165 8.0 9.0 0.00 0.00 0.00 61 1014.7
20260504200128 82 147 7.0 8.0 0.00 0.00 0.00 60 1014.5
20260504195624 83 192 3.0 5.0 0.00 0.00 0.00 60 1014.7
20260504195120 83 214 4.0 6.0 0.00 0.00 0.00 61 1014.8
20260504194617 83 227 4.0 7.0 0.00 0.00 0.00 61 1014.7
20260504194113 81 161 4.0 5.0 0.00 0.00 0.00 63 1014.9
20260504193609 81 234 5.0 7.0 0.00 0.00 0.00 63 1015.1
20260504193108 82 223 6.0 7.0 0.00 0.00 0.00 62 1015.1
20260504192606 82 267 0.0 1.0 0.00 0.00 0.00 62 1015.2
20260504192104 80 214 2.0 3.0 0.00 0.00 0.00 64 1015.0
20260504191602 80 162 5.0 7.0 0.00 0.00 0.00 64 1015.1
20260504191058 81 136 8.0 10.0 0.00 0.00 0.00 63 1015.5
20260504190554 81 206 1.0 1.0 0.00 0.00 0.00 65 1015.4
20260504190050 80 227 5.0 6.0 0.00 0.00 0.00 63 1015.6
20260504185547 82 220 4.0 7.0 0.00 0.00 0.00 64 1015.8
20260504185044 81 211 3.0 6.0 0.00 0.00 0.00 63 1015.8
20260504184539 82 206 2.0 3.0 0.00 0.00 0.00 63 1015.8
20260504184035 80 143 5.0 7.0 0.00 0.00 0.00 63 1015.5
20260504183532 81 277 2.0 2.0 0.00 0.00 0.00 64 1015.9
20260504183030 80 261 2.0 2.0 0.00 0.00 0.00 64 1015.8
20260504182527 81 203 3.0 3.0 0.00 0.00 0.00 63 1016.0
20260504182024 81 178 2.0 3.0 0.00 0.00 0.00 62 1016.2
20260504181521 80 203 4.0 6.0 0.00 0.00 0.00 63 1016.2
20260504181020 80 201 3.0 5.0 0.00 0.00 0.00 64 1016.4
20260504180518 81 207 4.0 6.0 0.00 0.00 0.00 64 1016.2
20260504180017 80 213 2.0 3.0 0.00 0.00 0.00 66 1016.3
20260504175513 80 139 6.0 8.0 0.00 0.00 0.00 64 1016.3
20260504175010 79 239 0.0 0.0 0.00 0.00 0.00 69 1016.3
20260504174508 79 190 5.0 6.0 0.00 0.00 0.00 66 1016.5
20260504174005 78 199 7.0 10.0 0.00 0.00 0.00 66 1016.5
20260504173501 77 211 1.0 3.0 0.00 0.00 0.00 70 1016.7
20260504172959 77 210 6.0 8.0 0.00 0.00 0.00 68 1017.4
20260504172455 76 215 1.0 1.0 0.00 0.00 0.00 71 1017.1
20260504171951 77 205 5.0 7.0 0.00 0.00 0.00 69 1017.3
20260504171449 76 196 2.0 3.0 0.00 0.00 0.00 70 1017.5
20260504170945 76 206 5.0 7.0 0.00 0.00 0.00 71 1017.5
20260504170442 76 207 5.0 7.0 0.00 0.00 0.00 71 1017.6
20260504160401 75 216 3.0 3.0 0.00 0.00 0.00 72 1018.0
20260504150825 73 204 2.0 2.0 0.00 0.00 0.00 75 1018.5
20260504150322 73 157 4.0 5.0 0.00 0.00 0.00 74 1018.4
20260504141252 70 335 2.0 3.0 0.00 0.00 0.00 77 1018.2
20260504140749 69 268 2.0 3.0 0.00 0.00 0.00 78 1018.1
20260504140244 70 159 3.0 5.0 0.00 0.00 0.00 76 1018.4
20260504130713 66 184 2.0 3.0 0.00 0.00 0.00 83 1018.3
20260504130209 65 190 3.0 3.0 0.00 0.00 0.00 82 1018.3
20260504120133 58 223 0.0 0.0 0.00 0.00 0.00 93 1017.6
20260504110600 59 223 0.0 0.0 0.00 0.00 0.00 91 1017.8
20260504100522 60 210 0.0 0.0 0.00 0.00 0.00 88 1018.1
20260504081915 63 198 2.0 2.0 0.00 0.00 0.00 81 1018.4
20260504081412 62 167 4.0 6.0 0.00 0.00 0.00 81 1018.5
20260504080908 63 169 0.0 1.0 0.00 0.00 0.00 81 1018.6
20260504080405 63 216 2.0 2.0 0.00 0.00 0.00 80 1018.7
20260504070333 64 210 1.0 2.0 0.00 0.00 0.00 77 1019.3
20260504050720 66 212 4.0 5.0 0.00 0.00 0.00 67 1020.5
20260504050212 66 205 1.0 2.0 0.00 0.00 0.00 67 1020.4
20260504045710 66 203 1.0 2.0 0.00 0.00 0.00 67 1020.5
20260504045209 66 195 2.0 9.0 0.00 0.00 0.00 66 1020.5
20260504044708 66 217 5.0 6.0 0.00 0.00 0.00 65 1020.5
20260504044205 67 169 5.0 7.0 0.00 0.00 0.00 64 1020.7
20260504043701 66 177 3.0 5.0 0.00 0.00 0.00 63 1020.5
20260504043158 66 202 4.0 7.0 0.00 0.00 0.00 62 1020.6
20260504042656 67 216 1.0 1.0 0.00 0.00 0.00 62 1020.7
20260504042152 67 206 3.0 3.0 0.00 0.00 0.00 61 1020.6
20260504041648 67 201 2.0 3.0 0.00 0.00 0.00 60 1020.6
20260504041144 68 182 2.0 2.0 0.00 0.00 0.00 60 1020.6
20260504040642 68 153 4.0 5.0 0.00 0.00 0.00 59 1020.7
20260504040138 68 211 0.0 0.0 0.00 0.00 0.00 59 1020.8
20260504035635 68 186 4.0 5.0 0.00 0.00 0.00 58 1020.6
20260504035132 69 199 3.0 5.0 0.00 0.00 0.00 57 1020.6
20260504034630 69 217 2.0 3.0 0.00 0.00 0.00 56 1020.6
20260504034126 68 221 3.0 5.0 0.00 0.00 0.00 56 1020.8
20260504033624 68 213 3.0 3.0 0.00 0.00 0.00 56 1020.7
20260504033121 68 205 0.0 1.0 0.00 0.00 0.00 56 1020.8
20260504032618 68 213 0.0 0.0 0.00 0.00 0.00 57 1020.7
20260504032115 68 211 0.0 0.0 0.00 0.00 0.00 57 1020.7
20260504031612 67 210 1.0 1.0 0.00 0.00 0.00 57 1020.5
20260504031108 67 210 1.0 1.0 0.00 0.00 0.00 57 1020.5
20260504030605 66 210 0.0 1.0 0.00 0.00 0.00 58 1020.7
20260504025559 67 210 0.0 0.0 0.00 0.00 0.00 57 1020.7
20260504025055 67 210 0.0 0.0 0.00 0.00 0.00 57 1020.6
20260504024553 68 210 0.0 0.0 0.00 0.00 0.00 57 1020.4
20260504024049 68 209 0.0 0.0 0.00 0.00 0.00 56 1020.5
20260504023546 68 209 0.0 0.0 0.00 0.00 0.00 56 1020.6
20260504023042 69 209 0.0 0.0 0.00 0.00 0.00 55 1020.6
20260504022538 69 209 0.0 0.0 0.00 0.00 0.00 56 1020.6
20260504022034 68 209 1.0 1.0 0.00 0.00 0.00 55 1020.5
20260504021532 68 208 1.0 1.0 0.00 0.00 0.00 56 1020.5
20260504021029 68 208 0.0 0.0 0.00 0.00 0.00 57 1020.3
20260504020526 68 209 0.0 0.0 0.00 0.00 0.00 56 1020.5
20260504020022 68 209 0.0 0.0 0.00 0.00 0.00 56 1020.3
20260504015519 69 208 0.0 0.0 0.00 0.00 0.00 56 1020.2
20260504015015 69 209 0.0 0.0 0.00 0.00 0.00 55 1020.3
20260504014511 69 208 0.0 0.0 0.00 0.00 0.00 55 1020.3
20260504014008 70 208 0.0 0.0 0.00 0.00 0.00 53 1020.1
20260504013506 70 208 0.0 0.0 0.00 0.00 0.00 52 1020.2
20260504013002 71 208 0.0 0.0 0.00 0.00 0.00 52 1019.8
20260504012500 71 208 0.0 0.0 0.00 0.00 0.00 51 1020.2
20260504011958 71 208 0.0 0.0 0.00 0.00 0.00 51 1019.9
20260504011454 72 208 0.0 1.0 0.00 0.00 0.00 50 1019.9
20260504010950 72 177 0.0 0.0 0.00 0.00 0.00 51 1019.8
20260504010446 73 177 0.0 1.0 0.00 0.00 0.00 49 1019.9
20260504005942 73 176 2.0 2.0 0.00 0.00 0.00 49 1019.9
20260504005439 73 210 1.0 1.0 0.00 0.00 0.00 48 1019.7
20260504004937 74 213 3.0 3.0 0.00 0.00 0.00 47 1019.8
20260504004434 74 186 5.0 6.0 0.00 0.00 0.00 46 1019.9
20260504003931 74 211 0.0 0.0 0.00 0.00 0.00 47 1019.9
20260504003427 74 201 2.0 2.0 0.00 0.00 0.00 46 1020.1
20260504002924 74 184 1.0 2.0 0.00 0.00 0.00 45 1019.8
20260504002421 74 214 3.0 5.0 0.00 0.00 0.00 45 1020.1
20260504001918 75 152 4.0 5.0 0.00 0.00 0.00 44 1020.0
20260504001416 75 197 1.0 2.0 0.00 0.00 0.00 44 1020.0
20260504000912 75 156 5.0 6.0 0.00 0.00 0.00 43 1020.0
20260504000409 75 203 1.0 1.0 0.00 0.00 0.00 45 1020.3
20260503235907 75 205 3.0 5.0 0.00 0.00 0.00 42 1020.1
20260503235405 75 171 5.0 7.0 0.00 0.00 0.00 42 1020.4
20260503234902 76 193 6.0 8.0 0.00 0.00 0.00 42 1020.4
20260503234359 76 160 5.0 7.0 0.00 0.00 0.00 41 1020.6
20260503233857 77 194 2.0 3.0 0.00 0.00 0.00 41 1020.6
20260503233353 77 142 6.0 7.0 0.00 0.00 0.00 40 1020.7
20260503232849 77 175 5.0 7.0 0.00 0.00 0.00 41 1020.3
20260503232347 77 150 4.0 5.0 0.00 0.00 0.00 41 1020.6
20260503231845 77 127 5.0 6.0 0.00 0.00 0.00 40 1020.3